{"data":{"norad_id":43175,"epoch":"2026-05-24T22:22:58.146816Z","epoch_age_seconds":74094,"freshness":"FRESH","line1":"1 43175U 18012B   26144.93261744 -.00000282  00000+0  00000+0 0  9996","line2":"2 43175   0.0274  38.1976 0000990  16.2794 116.2932  1.00271473  6797","mean_motion":1.00271473,"eccentricity":9.9e-5,"inclination_deg":0.0274,"raan_deg":38.1976,"arg_perigee_deg":16.2794,"mean_anomaly_deg":116.2932,"bstar":0,"rev_number":679,"period_min":1436.101372521,"perigee_km":35782.50810922,"apogee_km":35790.856743467,"semimajor_km":42164.819426343,"source":"CELESTRAK","updated_at":"2026-05-25T13:38:14.513072Z"}}